Location: Oriwa
(40.7500°S, 175.3333°E)
Time: 14:08:30
(UTC+00:00)

SL-4 R/B - Pass Details

Date: 03 February 2023
Orbit: 423 x 637 km, 51.6° (Epoch: 31 March)

Event Time Altitude Azimuth Distance (km) Brightness Sun altitude
Exits shadow 14:27:50 30° 72° (ENE) 1,172 3.7 -26.8°
Drops below altitude 10° 14:31:03 10° 110° (ESE) 2,046 5.6 -26.5°
Sets 14:33:32 0° 119° (ESE) 2,944 6.7 -26.2°
